Weather History for Fort Leonard Wood, MO

Change the Weather History Date:

Saturday, February 16, 2013

  Actual Average Record
Temperature  
Mean Temperature 28 °F -  
Max Temperature 36 °F 46 °F 73 °F (2011)
Min Temperature 19 °F 32 °F 6 °F (2007)
Degree Days  
Heating Degree Days 38    
Moisture  
Dew Point 14 °F    
Average Humidity 59    
Maximum Humidity 78    
Minimum Humidity 34    
Precipitation  
Precipitation 0.00 in - - ()
Sea Level Pressure  
Sea Level Pressure 30.24 in    
Wind  
Wind Speed 5 mph (WNW)    
Max Wind Speed 9 mph    
Max Gust Speed -    
Visibility 10 miles    
Events      
Averages and records for this station are not official NWS values.
T = Trace of Precipitation, MM = Missing Value Source: NWS Daily Summary

Daily Weather History Graph

Daily Weather History Graph

Search for Another Location

Airport:

Trip Planner

Search our weather history database for the weather conditions in past years. The results will help you decide how hot, cold, wet, or windy it might be!

Date:

Astronomy

Feb. 16, 2013 Rise Set
Actual Time 6:56 AM CST 5:49 PM CST
Civil Twilight 6:29 AM CST 6:15 PM CST
Nautical Twilight 5:59 AM CST 6:46 PM CST
Astronomical Twilight 5:28 AM CST 7:17 PM CST
Moon 10:17 AM CST (2/16) No Moon Set
Length of Visible Light 11h 45m
Length of Day
10h 52m
Waxing Crescent, 39% of the Moon is Illuminated
Feb 16
Waxing Crescent
Feb 17
First Quarter
Feb 25
Full
Mar 4
Last Quarter
Mar 11
New

Hourly Weather History & Observations

Time (CST) Temp. Windchill Dew Point Humidity Pressure Visibility Wind Dir Wind Speed Gust Speed Precip Events Conditions
12:55 AM 23.0 °F 17.0 °F 14.4 °F 70% 30.27 in 10.0 mi NW 4.6 mph - N/A   Clear
1:55 AM 22.1 °F 15.9 °F 14.2 °F 72% 30.27 in 10.0 mi WNW 4.6 mph - N/A   Clear
2:55 AM 21.0 °F 14.6 °F 14.0 °F 74% 30.27 in 10.0 mi NW 4.6 mph - N/A   Scattered Clouds
3:55 AM 22.1 °F 15.9 °F 15.6 °F 76% 30.25 in 10.0 mi NNW 4.6 mph - N/A   Overcast
4:48 AM 23.0 °F 18.4 °F 15.8 °F 74% 30.26 in 10.0 mi NW 3.5 mph - N/A   Overcast
4:52 AM 23.0 °F 17.0 °F 15.8 °F 74% 30.27 in 10.0 mi NNW 4.6 mph - N/A   Overcast
4:55 AM 22.6 °F 15.3 °F 15.8 °F 75% 30.26 in 10.0 mi NNW 5.8 mph - N/A   Overcast
5:55 AM 20.5 °F 15.6 °F 14.7 °F 78% 30.27 in 10.0 mi NW 3.5 mph - N/A   Clear
6:55 AM 19.2 °F 14.1 °F 13.5 °F 78% 30.28 in 10.0 mi WNW 3.5 mph - N/A   Clear
7:55 AM 21.2 °F 14.9 °F 13.8 °F 73% 30.30 in 10.0 mi WNW 4.6 mph - N/A   Clear
8:55 AM 24.3 °F 14.6 °F 14.9 °F 68% 30.31 in 10.0 mi NW 9.2 mph - N/A   Clear
9:55 AM 27.1 °F 18.2 °F 15.1 °F 60% 30.31 in 10.0 mi NW 9.2 mph - N/A   Clear
10:55 AM 29.7 °F 21.3 °F 14.9 °F 54% 30.31 in 10.0 mi NW 9.2 mph - N/A   Clear
11:55 AM 32.4 °F - 13.6 °F 46% 30.28 in 10.0 mi Calm Calm - N/A   Partly Cloudy
12:55 PM 33.8 °F 28.6 °F 11.1 °F 39% 30.25 in 10.0 mi West 5.8 mph - N/A   Partly Cloudy
1:55 PM 35.1 °F 29.3 °F 9.0 °F 34% 30.22 in 10.0 mi NW 6.9 mph - N/A   Clear
2:55 PM 35.6 °F 29.9 °F 9.3 °F 34% 30.21 in 10.0 mi Variable 6.9 mph - N/A   Clear
3:55 PM 36.0 °F 30.3 °F 10.4 °F 35% 30.20 in 10.0 mi West 6.9 mph - N/A   Clear
4:55 PM 34.2 °F 30.0 °F 12.0 °F 40% 30.19 in 10.0 mi Variable 4.6 mph - N/A   Mostly Cloudy
5:55 PM 33.1 °F 30.0 °F 12.6 °F 43% 30.20 in 10.0 mi WSW 3.5 mph - N/A   Overcast
6:55 PM 32.4 °F 27.9 °F 14.0 °F 47% 30.20 in 10.0 mi WSW 4.6 mph - N/A   Overcast
7:55 PM 31.5 °F - 15.3 °F 51% 30.20 in 10.0 mi Calm Calm - N/A   Overcast
8:55 PM 30.7 °F - 16.2 °F 55% 30.19 in 10.0 mi Calm Calm - N/A   Overcast
9:55 PM 30.9 °F 27.5 °F 19.6 °F 63% 30.20 in 10.0 mi SSE 3.5 mph - N/A   Overcast
10:55 PM 30.4 °F 25.6 °F 19.8 °F 65% 30.18 in 10.0 mi SE 4.6 mph - N/A   Overcast
11:55 PM 30.4 °F 26.9 °F 18.7 °F 62% 30.17 in 10.0 mi SE 3.5 mph - N/A   Overcast